RH
66 80 67 61 55 55 65 59 55 44 39 55 51 50 44 40 43 45 48 50 50 53 56 61 36 34 46 48 30 30 26 20 32 36 54 57 51 48 45 42 39 38 40 47
57 70 57 59 64 65 73 80 60 48 49 52 50 52 44 43 47 55 58 59 62 65 66 65 64 39 41 36 49 30 30 20 23 33 43 54 49 48 44 36 30 31 36 44
77 58 60 64 68 69 62 65 62 78 58 50 55 52 50 41 49 54 67 75 71 74 78 78 80 74 40 37 35 40 31 22 20 28 38 53 52 43 36 31 30 35 42 45
73 63 66 72 71 62 66 53 61 73 80 71 53 74 50 55 53 53 73 91 96 99 92 88 90 82 70 60 55 34 34 31 43 38 58 60 49 43 35 32 69 40 49 64
72 66 73 78 63 62 60 58 73 84 92 95 62 93 52 66 84 89 87 96 100 99 99 99 99 98 100 98 91 57 45 45 88 78 68 60 52 44 35 36 40 72 73 70
73 72 73 65 64 61 57 76 78 85 97 90 64 80 61 98 100 95 96 98 100 99 99 100 100 99 99 99 95 99 75 59 95 83 80 84 59 48 42 83 94 82 92 99
66 69 69 76 75 69 82 97 83 84 88 73 78 93 92 98 96 99 98 99 100 99 98 100 97 100 100 100 100 97 100 98 98 95 88 74 60 67 92 96 98 94 95 94
86 80 72 71 68 87 84 98 92 86 72 67 69 86 100 91 98 99 100 100 98 100 100 99 97 100 98 98 99 100 100 99 96 97 98 97 95 95 96 98 100 100 100 100
72 74 54 65 59 69 70 75 70 100 67 78 70 80 96 82 94 97 99 89 86 91 89 80 76 89 92 96 100 100 100 98 100 100 99 98 100 100 99 98 100 96 99 96
65 89 56 58 68 66 72 67 76 88 84 76 56 78 88 98 99 87 84 71 67 65 72 75 76 80 80 90 77 100 100 100 100 100 100 100 100 94 100 100 100 100 100 100
65 76 60 58 66 55 67 59 63 64 69 67 62 70 85 99 85 78 75 62 44 48 65 76 70 60 59 63 51 74 76 86 95 99 100 100 100 100 100 100 99 98 96 96
59 65 78 49 49 48 51 53 51 72 62 58 60 63 51 60 63 65 59 45 44 45 36 56 51 59 53 47 41 45 41 32 34 30 52 52 64 63 75 73 41 31 32 34
56 65 72 38 42 50 55 53 50 59 67 70 56 42 49 53 58 58 55 51 50 51 51 32 45 51 38 36 33 29 28 25 24 21 20 17 14 12 12 12 11 12 11 10
59 63 59 52 35 42 47 53 52 60 81 53 48 34 40 49 53 54 54 50 46 49 52 40 35 32 35 34 30 29 22 20 19 18 16 12 11 11 10 9 8 8 7 7
59 70 63 62 53 52 55 51 48 74 54 60 39 47 33 34 41 46 50 53 46 47 54 50 40 40 32 27 24 22 20 19 18 15 12 11 11 10 9 8 8 9 8 8
57 65 61 67 45 56 64 50 50 50 48 49 47 48 33 34 43 53 54 56 53 48 53 52 34 36 35 24 21 19 18 16 15 13 12 12 11 10 10 10 10 9 10 11
58 60 58 53 45 43 35 25 34 37 38 39 48 31 41 45 49 50 51 56 55 51 53 54 40 23 20 17 18 19 17 16 14 12 12 13 14 14 14 14 15 17 16 16
57 60 59 58 41 32 19 39 33 34 32 40 45 41 39 39 46 51 54 54 54 54 52 53 44 22 21 19 19 19 16 14 14 14 17 20 21 21 20 18 18 21 25 29
63 56 56 52 42 24 21 31 41 42 21 28 35 33 40 50 57 48 45 49 54 53 53 51 42 21 20 21 21 20 18 18 18 19 22 24 24 23 21 20 19 22 24 19
70 62 58 57 52 23 11 32 43 36 16 24 35 31 38 56 46 31 33 42 47 53 52 46 31 21 22 23 25 26 25 25 24 23 22 20 21 21 22 22 21 22 24 23
70 68 75 61 56 35 24 40 44 21 12 19 36 40 47 50 35 38 25 26 46 50 44 38 18 20 21 22 25 28 26 26 24 22 20 19 20 22 22 24 24 25 27 36
51 59 64 60 63 58 35 48 30 18 22 35 36 31 39 46 51 47 37 29 36 39 34 22 19 21 23 26 28 30 28 26 23 21 22 23 22 20 21 25 32 40 41 39
46 35 32 43 35 33 38 38 33 29 35 38 38 37 34 33 35 45 46 40 33 31 29 20 21 25 26 28 30 29 25 22 20 19 22 22 20 22 26 30 32 36 47 60
42 45 40 40 26 33 33 31 29 28 33 32 32 37 46 42 37 39 48 48 40 35 32 23 22 24 26 27 27 26 24 22 22 25 22 20 22 24 32 33 32 33 51 67
35 45 40 39 32 31 32 35 35 30 32 34 33 35 38 40 39 41 43 46 48 42 37 29 24 24 26 28 30 30 27 24 26 28 25 22 21 23 24 29 36 41 66 98
49 40 40 30 24 26 26 26 30 35 37 41 42 42 41 42 42 42 41 45 49 47 41 33 28 27 29 30 29 25 24 25 28 27 25 25 26 28 31 30 30 55 56 68
Wind_Speed
4 3 4 3 3 3 3 7 12 14 11 10 12 20 22 24 17 15 15 17 20 26 24 21 20 22 25 26 32 31 30 35 30 27 27 27 28 26 26 25 25 25 26 27
2 4 3 3 2 1 2 8 10 10 2 7 15 23 22 12 9 15 17 23 27 29 27 22 19 20 22 27 26 31 28 31 31 29 27 28 27 26 24 26 27 28 29 30
2 2 2 2 3 4 6 8 7 6 12 14 11 12 3 1 13 13 17 21 21 22 24 21 18 16 17 24 28 27 29 28 30 30 26 28 27 27 27 27 27 27 27 31
2 1 4 4 5 5 6 4 9 10 8 5 6 6 2 9 10 13 19 28 26 18 13 12 12 9 9 13 20 26 24 26 26 28 27 28 27 25 24 25 22 24 28 30
2 3 3 5 3 6 3 1 10 9 8 9 1 4 2 10 14 21 23 31 27 17 17 14 12 11 4 6 11 14 19 21 19 23 26 25 25 23 23 25 27 27 30 34
6 3 4 2 4 9 9 9 9 4 3 4 1 3 1 8 9 14 19 22 19 18 18 19 11 11 10 4 7 11 18 21 20 23 22 19 18 17 17 19 22 23 23 23
4 3 3 5 3 3 3 4 2 2 2 3 3 3 4 9 8 7 13 17 16 17 24 23 23 21 20 16 8 8 12 15 17 17 16 13 14 14 15 14 10 7 5 6
5 1 5 7 3 2 1 1 3 4 4 8 1 6 2 7 10 9 12 13 13 13 20 24 24 25 27 20 5 5 9 13 15 16 14 12 14 15 13 11 10 5 4 1
5 3 1 6 3 2 1 2 3 3 5 4 1 2 4 7 4 7 8 11 13 15 15 19 21 24 23 24 24 15 13 12 11 11 12 16 16 16 16 19 14 11 7 7
1 6 3 1 4 8 5 4 2 2 3 3 2 2 3 5 7 4 6 10 13 13 14 15 15 16 19 22 25 23 25 16 12 14 15 18 20 17 17 16 14 11 8 7
1 1 1 2 6 3 3 3 4 3 3 3 5 1 8 10 8 5 6 10 10 11 11 11 12 13 14 14 18 20 24 22 19 19 14 16 16 12 11 6 7 4 4 7
0 3 6 3 3 1 3 3 2 3 2 3 4 4 10 10 8 7 7 6 3 7 11 10 11 11 12 11 11 16 18 18 18 17 12 13 11 7 3 1 2 3 4 7
3 2 6 2 3 2 4 5 3 3 2 7 3 0 4 8 9 9 8 8 5 2 4 8 6 7 8 9 11 13 14 16 15 12 12 12 11 8 7 7 6 6 6 8
4 3 8 8 8 3 8 6 6 5 3 3 9 9 7 11 11 11 10 9 8 6 5 4 5 7 7 8 9 10 10 12 13 12 13 12 12 11 10 10 9 10 11 11
3 6 7 15 20 18 19 19 15 11 11 7 3 7 10 7 11 13 11 10 9 8 6 5 3 4 6 7 7 8 9 10 11 10 10 11 11 11 11 11 11 11 12 13
2 4 4 9 8 6 12 14 15 16 16 15 18 21 13 15 8 10 13 12 12 11 8 6 4 3 3 5 5 6 7 8 9 10 11 11 12 12 12 13 14 15 15 16
4 3 4 6 4 12 11 10 15 9 10 11 10 7 3 7 11 16 15 15 14 12 9 8 6 5 4 4 3 4 5 7 9 11 11 12 12 12 13 15 17 18 20 21
5 3 2 6 10 4 3 2 4 12 9 16 11 8 7 7 8 11 15 16 15 14 13 11 8 7 5 5 4 4 5 7 9 11 12 14 15 16 18 19 21 22 22 22
14 5 4 4 4 11 2 4 5 6 3 9 17 15 15 8 6 16 19 20 17 14 13 13 11 8 7 7 6 4 5 7 9 12 14 15 16 17 18 19 20 21 21 21
6 7 5 1 4 4 2 3 5 3 2 5 7 8 8 9 7 6 5 20 18 16 15 14 11 9 9 9 8 6 6 8 10 12 14 15 16 17 17 18 19 19 19 19
4 4 11 9 6 10 3 6 7 3 3 5 3 5 5 8 12 4 4 10 18 17 15 14 13 12 12 11 8 6 7 9 11 13 15 16 17 17 17 18 18 18 18 18
9 8 5 5 6 9 7 6 5 2 2 2 3 7 9 14 16 15 10 10 15 17 17 15 15 14 13 11 8 7 7 9 12 14 16 17 17 17 17 17 17 16 16 18
5 7 3 9 6 1 14 9 9 9 8 9 14 16 16 16 18 21 18 16 16 16 16 16 15 15 13 11 9 9 9 10 13 14 16 17 16 15 15 15 16 16 17 18
7 7 5 2 6 17 22 25 24 25 27 25 23 21 19 21 19 19 22 23 22 21 20 18 18 17 14 12 11 10 11 12 12 12 14 15 15 14 14 14 16 18 19 20
3 10 6 9 21 24 27 25 20 11 10 14 17 15 13 16 21 24 25 25 27 24 22 21 19 17 15 13 12 12 11 11 12 13 14 15 15 15 16 16 17 17 17 17
16 12 8 9 13 16 19 12 13 15 22 26 22 24 25 24 25 24 26 27 26 26 24 22 20 18 16 14 13 12 12 12 12 13 13 14 15 16 16 17 18 18 19 21
Wind_Direction
29 75 54 57 42 33 348 297 292 286 295 292 282 293 295 305 306 312 305 300 299 299 299 292 295 296 256 244 244 243 242 233 229 232 233 233 237 242 248 255 261 265 264 261
156 81 77 103 108 8 358 311 304 301 321 290 296 297 295 308 323 322 314 311 308 305 305 298 292 293 268 245 245 243 241 235 228 230 233 236 238 243 250 256 261 264 263 262
15 71 138 245 238 274 285 268 291 283 313 283 299 282 275 34 327 322 337 336 320 316 308 307 300 283 269 247 244 244 242 235 229 228 233 233 236 243 250 256 261 264 264 262
277 123 217 251 270 227 299 230 257 277 320 320 350 297 274 337 328 346 349 345 331 339 345 354 342 311 283 268 257 244 239 238 229 224 227 231 238 245 256 267 266 268 270 270
76 201 238 271 271 194 292 199 283 282 266 302 150 258 280 347 335 340 344 336 347 354 5 32 28 12 330 259 246 235 234 232 223 222 226 232 241 251 258 267 275 282 286 284
257 211 252 275 286 244 277 304 296 245 248 257 192 269 331 354 331 330 338 349 2 12 12 29 31 38 20 318 235 229 221 219 215 218 223 231 248 257 265 270 281 291 292 287
295 202 224 233 285 181 210 307 318 242 222 330 175 233 357 340 348 328 336 349 349 14 29 26 24 36 34 10 325 245 224 213 214 216 222 236 246 246 254 266 277 283 285 318
349 261 196 168 245 296 244 315 331 308 334 314 162 311 355 349 18 14 8 355 3 1 27 25 25 25 40 22 23 114 163 200 206 206 216 217 222 230 237 242 228 197 175 104
335 286 226 207 208 232 100 300 347 269 237 272 296 209 189 349 358 7 357 348 347 10 14 15 14 20 24 28 46 86 123 155 191 205 214 213 212 212 223 224 232 243 260 270
33 289 234 71 194 231 249 340 241 194 309 304 256 271 304 313 317 10 341 329 339 350 2 9 8 13 22 20 38 63 87 113 140 173 201 202 206 214 198 195 197 217 238 264
269 240 222 246 204 215 186 208 233 280 242 305 314 268 192 212 217 234 257 299 337 351 357 6 9 26 35 18 40 52 69 77 81 95 114 138 143 145 150 168 209 213 273 267
81 307 280 272 111 320 289 274 278 279 185 250 288 271 175 209 222 228 209 237 277 330 345 354 6 18 38 48 39 54 68 73 80 70 62 68 79 84 72 74 42 15 320 313
163 226 296 201 153 143 236 194 233 267 302 234 267 342 183 219 232 230 211 216 240 257 329 345 3 26 30 35 48 58 61 71 74 82 84 81 79 77 63 49 24 12 353 340
195 247 239 258 293 316 262 226 219 205 258 300 247 284 225 221 226 221 216 213 225 266 296 330 346 11 31 42 53 60 61 63 61 54 54 53 48 40 32 22 7 354 345 338
243 269 260 263 269 271 267 266 246 219 232 251 4 261 288 255 223 225 226 215 223 237 242 282 312 341 19 30 42 47 52 52 54 52 45 38 32 23 12 1 355 353 347 340
197 274 301 285 270 252 255 254 242 241 245 252 263 276 266 250 224 217 219 220 232 236 234 268 309 343 354 6 18 30 33 31 33 29 26 22 15 8 3 359 355 351 350 349
215 255 312 272 312 303 272 250 211 216 213 218 218 237 171 202 220 227 226 226 233 236 237 252 276 292 304 325 356 12 17 16 14 12 9 6 5 4 1 357 356 355 352 351
228 215 237 288 313 263 57 133 181 223 247 222 264 249 229 238 241 244 231 228 229 231 237 242 255 263 275 296 315 340 354 358 0 359 358 360 2 360 357 354 352 351 352 351
224 232 259 274 282 291 218 189 190 201 297 223 239 263 252 243 286 268 241 230 228 231 238 239 247 253 266 275 281 301 331 347 351 354 355 355 353 351 347 344 343 345 344 340
184 256 263 267 277 265 79 167 171 158 246 172 213 276 260 196 242 255 251 226 225 229 233 234 245 252 261 270 278 303 326 337 343 346 347 344 341 338 336 336 334 335 334 333
163 200 232 242 269 278 242 150 152 245 93 162 222 301 218 215 234 233 232 218 219 226 226 231 238 244 248 254 265 291 313 327 331 335 336 336 333 331 330 330 328 331 333 334
184 184 203 194 225 267 148 131 211 47 165 192 296 322 281 261 254 251 243 216 212 218 223 231 235 242 248 255 270 288 302 313 322 327 331 331 329 326 326 327 327 332 333 334
232 217 194 214 233 80 196 244 233 256 276 286 294 288 290 276 265 245 242 232 228 228 232 238 241 245 250 260 272 284 294 303 313 324 328 327 326 325 324 324 325 332 338 340
221 195 234 245 242 251 253 252 261 277 277 284 286 287 280 274 273 266 250 241 235 233 234 238 239 244 249 256 265 275 286 297 307 318 321 325 326 326 323 325 327 332 335 337
249 164 217 256 274 276 274 262 262 273 275 299 301 294 293 289 280 271 262 250 242 238 235 235 238 241 246 253 264 274 284 298 310 317 320 327 331 332 331 332 332 334 335 328
209 221 216 238 250 243 264 259 282 292 300 304 296 285 283 285 281 274 267 259 251 239 233 235 239 242 248 255 265 275 286 292 297 303 314 324 330 333 333 331 331 333 334 331